| time (UTC) | temp C | wind direction | speed KPH | gust KPH | rain 1hr cm | rain 24hr cm | rain mn cm | humidity % | barometer mb |
| 20260510140304 | 25 | 43 | 14.5 | 22.5 | 0.00 | 0.03 | 0.00 | 47 | 1009.8 |
| 20260510135804 | 25 | 18 | 14.5 | 20.9 | 0.00 | 0.03 | 0.00 | 48 | 1009.9 |
| 20260510135306 | 25 | 83 | 9.7 | 19.3 | 0.00 | 0.03 | 0.00 | 51 | 1010.0 |
| 20260510134806 | 25 | 24 | 12.9 | 20.9 | 0.00 | 0.03 | 0.00 | 49 | 1010.1 |
| 20260510134305 | 25 | 42 | 16.1 | 24.1 | 0.00 | 0.03 | 0.00 | 51 | 1010.3 |
| 20260510133304 | 25 | 11 | 12.9 | 20.9 | 0.00 | 0.03 | 0.00 | 50 | 1010.3 |
| 20260510132804 | 25 | 8 | 11.3 | 22.5 | 0.00 | 0.03 | 0.00 | 53 | 1010.3 |
| 20260510131804 | 25 | 18 | 12.9 | 20.9 | 0.00 | 0.03 | 0.00 | 53 | 1010.6 |
| 20260510130805 | 25 | 91 | 11.3 | 16.1 | 0.00 | 0.03 | 0.00 | 50 | 1010.8 |
| 20260510130304 | 25 | 45 | 16.1 | 20.9 | 0.00 | 0.03 | 0.00 | 50 | 1010.9 |
| 20260510125805 | 25 | 57 | 11.3 | 19.3 | 0.00 | 0.03 | 0.00 | 52 | 1011.0 |
| 20260510125306 | 25 | 4 | 11.3 | 19.3 | 0.00 | 0.05 | 0.00 | 52 | 1011.1 |
| 20260510124805 | 25 | 91 | 8.0 | 12.9 | 0.00 | 0.05 | 0.00 | 54 | 1011.1 |
| 20260510124304 | 23 | 107 | 8.0 | 16.1 | 0.00 | 0.08 | 0.00 | 58 | 1011.2 |
| 20260510123304 | 23 | 52 | 9.7 | 16.1 | 0.00 | 0.10 | 0.00 | 63 | 1011.2 |
| 20260510122804 | 23 | 53 | 14.5 | 20.9 | 0.00 | 0.13 | 0.00 | 63 | 1011.3 |
| 20260510122306 | 23 | 38 | 11.3 | 19.3 | 0.00 | 0.15 | 0.00 | 61 | 1011.3 |
| 20260510121805 | 23 | 29 | 11.3 | 19.3 | 0.00 | 0.18 | 0.00 | 60 | 1011.4 |
| 20260510121305 | 23 | 32 | 9.7 | 19.3 | 0.00 | 0.20 | 0.00 | 60 | 1011.4 |
| 20260510120805 | 23 | 30 | 9.7 | 14.5 | 0.00 | 0.25 | 0.00 | 60 | 1011.4 |
| 20260510120305 | 24 | 48 | 9.7 | 16.1 | 0.00 | 0.30 | 0.00 | 57 | 1011.6 |
| 20260510115804 | 24 | 69 | 8.0 | 19.3 | 0.00 | 0.36 | 0.00 | 57 | 1011.7 |
| 20260510115306 | 24 | 109 | 8.0 | 14.5 | 0.00 | 0.38 | 0.00 | 59 | 1011.7 |
| 20260510114805 | 24 | 29 | 8.0 | 14.5 | 0.00 | 0.43 | 0.00 | 60 | 1011.8 |
| 20260510113804 | 23 | 55 | 11.3 | 16.1 | 0.00 | 0.56 | 0.00 | 59 | 1011.9 |
| 20260510113304 | 23 | 30 | 9.7 | 19.3 | 0.00 | 0.61 | 0.00 | 61 | 1011.9 |
| 20260510112804 | 23 | 19 | 6.4 | 14.5 | 0.00 | 0.66 | 0.00 | 60 | 1011.9 |
| 20260510112306 | 23 | 88 | 8.0 | 19.3 | 0.00 | 0.66 | 0.00 | 61 | 1011.9 |
| 20260510111804 | 23 | 100 | 8.0 | 16.1 | 0.00 | 0.71 | 0.00 | 61 | 1012.0 |
| 20260510110804 | 23 | 52 | 9.7 | 19.3 | 0.00 | 0.76 | 0.00 | 63 | 1012.1 |
| 20260510110305 | 23 | 27 | 8.0 | 12.9 | 0.00 | 0.79 | 0.00 | 63 | 1012.2 |
| 20260510105804 | 23 | 1 | 8.0 | 14.5 | 0.00 | 0.81 | 0.00 | 62 | 1012.1 |
| 20260510105306 | 23 | 23 | 4.8 | 11.3 | 0.00 | 0.86 | 0.00 | 62 | 1012.1 |
| 20260510104804 | 22 | 4 | 6.4 | 9.7 | 0.00 | 0.86 | 0.00 | 63 | 1012.2 |
| 20260510104305 | 23 | 19 | 6.4 | 11.3 | 0.00 | 0.89 | 0.00 | 62 | 1012.3 |
| 20260510103805 | 23 | 0 | 3.2 | 14.5 | 0.00 | 0.91 | 0.00 | 63 | 1012.3 |
| 20260510103305 | 23 | 74 | 4.8 | 9.7 | 0.00 | 0.97 | 0.00 | 65 | 1012.4 |
| 20260510102804 | 23 | 22 | 4.8 | 12.9 | 0.00 | 1.07 | 0.00 | 65 | 1012.4 |
| 20260510102306 | 22 | 13 | 4.8 | 12.9 | 0.00 | 1.09 | 0.00 | 66 | 1012.5 |
| 20260510101804 | 22 | 20 | 6.4 | 11.3 | 0.00 | 1.12 | 0.00 | 66 | 1012.6 |
| 20260510101304 | 22 | 19 | 6.4 | 12.9 | 0.00 | 1.12 | 0.00 | 67 | 1012.6 |
| 20260510100305 | 22 | 42 | 3.2 | 9.7 | 0.00 | 1.17 | 0.00 | 67 | 1012.6 |
| 20260510095804 | 22 | 70 | 6.4 | 11.3 | 0.00 | 1.22 | 0.00 | 69 | 1012.6 |
| 20260510095306 | 22 | 67 | 4.8 | 12.9 | 0.00 | 1.22 | 0.00 | 68 | 1012.7 |
| 20260510094804 | 22 | 89 | 3.2 | 8.0 | 0.00 | 1.22 | 0.00 | 66 | 1012.7 |
| 20260510093804 | 22 | 103 | 3.2 | 9.7 | 0.00 | 1.24 | 0.00 | 66 | 1012.8 |
| 20260510093304 | 22 | 116 | 3.2 | 8.0 | 0.00 | 1.30 | 0.00 | 66 | 1012.9 |
| 20260510092804 | 21 | 116 | 3.2 | 8.0 | 0.00 | 1.45 | 0.00 | 69 | 1012.9 |
| 20260510092306 | 21 | 85 | 6.4 | 9.7 | 0.00 | 1.50 | 0.00 | 71 | 1013.0 |
| 20260510091805 | 21 | 113 | 1.6 | 4.8 | 0.00 | 1.50 | 0.00 | 72 | 1013.0 |
| 20260510091304 | 20 | 114 | 3.2 | 8.0 | 0.00 | 1.50 | 0.00 | 73 | 1013.0 |
| 20260510090805 | 20 | 113 | 1.6 | 8.0 | 0.00 | 1.52 | 0.00 | 74 | 1013.0 |
| 20260510090304 | 21 | 113 | 4.8 | 8.0 | 0.00 | 1.52 | 0.00 | 72 | 1013.0 |
| 20260510085805 | 20 | 153 | 1.6 | 4.8 | 0.00 | 1.57 | 0.00 | 74 | 1013.0 |
| 20260510085306 | 20 | 184 | 1.6 | 3.2 | 0.00 | 1.57 | 0.00 | 74 | 1013.1 |
| 20260510084805 | 20 | 184 | 3.2 | 4.8 | 0.00 | 1.63 | 0.00 | 72 | 1013.2 |
| 20260510084304 | 20 | 184 | 0.0 | 4.8 | 0.00 | 1.63 | 0.00 | 72 | 1013.2 |
| 20260510083305 | 20 | 184 | 1.6 | 4.8 | 0.00 | 1.73 | 0.00 | 72 | 1013.2 |
| 20260510082805 | 20 | 184 | 3.2 | 4.8 | 0.00 | 1.78 | 0.00 | 72 | 1013.2 |
| 20260510082306 | 20 | 184 | 1.6 | 3.2 | 0.00 | 1.83 | 0.00 | 74 | 1013.2 |
| 20260510081805 | 20 | 184 | 3.2 | 4.8 | 0.00 | 1.85 | 0.00 | 74 | 1013.1 |
| 20260510080305 | 19 | 225 | 1.6 | 4.8 | 0.00 | 2.03 | 0.00 | 76 | 1013.2 |
| 20260510075805 | 19 | 225 | 0.0 | 3.2 | 0.00 | 2.08 | 0.00 | 77 | 1013.3 |
| 20260510075306 | 19 | 225 | 1.6 | 3.2 | 0.00 | 2.13 | 0.00 | 78 | 1013.3 |
| 20260510074304 | 18 | 225 | 3.2 | 4.8 | 0.00 | 2.18 | 0.00 | 82 | 1013.3 |
| 20260510073804 | 18 | 226 | 1.6 | 4.8 | 0.00 | 2.18 | 0.00 | 81 | 1013.3 |
| 20260510073305 | 18 | 226 | 3.2 | 4.8 | 0.00 | 2.21 | 0.00 | 81 | 1013.3 |
| 20260510072805 | 17 | 226 | 0.0 | 1.6 | 0.00 | 2.24 | 0.00 | 84 | 1013.4 |
| 20260510072306 | 17 | 226 | 0.0 | 3.2 | 0.00 | 2.24 | 0.00 | 84 | 1013.4 |
| 20260510071804 | 17 | 227 | 0.0 | 1.6 | 0.00 | 2.29 | 0.00 | 85 | 1013.3 |
| 20260510071304 | 17 | 229 | 1.6 | 4.8 | 0.00 | 2.29 | 0.00 | 86 | 1013.3 |
| 20260510070805 | 17 | 229 | 0.0 | 3.2 | 0.00 | 2.29 | 0.00 | 87 | 1013.3 |
| 20260510070304 | 16 | 229 | 1.6 | 3.2 | 0.00 | 2.29 | 0.00 | 87 | 1013.3 |
| 20260510065804 | 16 | 229 | 1.6 | 1.6 | 0.00 | 2.29 | 0.00 | 88 | 1013.2 |
| 20260510065306 | 16 | 229 | 0.0 | 4.8 | 0.00 | 2.29 | 0.00 | 88 | 1013.1 |
| 20260510064805 | 16 | 229 | 3.2 | 4.8 | 0.00 | 2.29 | 0.00 | 89 | 1013.1 |
| 20260510064304 | 15 | 229 | 0.0 | 4.8 | 0.00 | 2.29 | 0.00 | 89 | 1013.1 |
| 20260510063804 | 15 | 229 | 0.0 | 1.6 | 0.00 | 2.29 | 0.00 | 89 | 1013.0 |
| 20260510062804 | 15 | 229 | 3.2 | 4.8 | 0.00 | 2.29 | 0.00 | 89 | 1012.8 |
| 20260510062307 | 15 | 229 | 1.6 | 4.8 | 0.00 | 2.29 | 0.00 | 89 | 1012.8 |
| 20260510061805 | 15 | 229 | 1.6 | 4.8 | 0.00 | 2.29 | 0.00 | 89 | 1012.8 |
| 20260510061304 | 15 | 229 | 3.2 | 4.8 | 0.00 | 2.29 | 0.00 | 89 | 1012.8 |
| 20260510060304 | 15 | 229 | 1.6 | 4.8 | 0.00 | 2.29 | 0.00 | 89 | 1012.7 |
| 20260510055804 | 15 | 229 | 1.6 | 4.8 | 0.00 | 2.29 | 0.00 | 89 | 1012.7 |
| 20260510055306 | 14 | 229 | 0.0 | 4.8 | 0.00 | 2.29 | 0.00 | 89 | 1012.6 |
| 20260510054804 | 14 | 229 | 3.2 | 4.8 | 0.00 | 2.29 | 0.00 | 89 | 1012.6 |
| 20260510054304 | 14 | 229 | 1.6 | 4.8 | 0.00 | 2.29 | 0.00 | 89 | 1012.5 |
| 20260510053804 | 14 | 229 | 3.2 | 4.8 | 0.00 | 2.29 | 0.00 | 89 | 1012.5 |
| 20260510053305 | 14 | 229 | 1.6 | 3.2 | 0.00 | 2.29 | 0.00 | 89 | 1012.4 |
| 20260510052804 | 14 | 229 | 0.0 | 1.6 | 0.00 | 2.29 | 0.00 | 89 | 1012.3 |
| 20260510052306 | 14 | 229 | 3.2 | 4.8 | 0.00 | 2.29 | 0.00 | 89 | 1012.2 |
| 20260510051805 | 14 | 229 | 0.0 | 4.8 | 0.00 | 2.29 | 0.00 | 89 | 1012.1 |
| 20260510051304 | 14 | 229 | 1.6 | 1.6 | 0.00 | 2.29 | 0.00 | 89 | 1012.1 |
| 20260510050805 | 14 | 229 | 0.0 | 1.6 | 0.00 | 2.29 | 0.00 | 89 | 1012.0 |
| 20260510050304 | 14 | 229 | 1.6 | 4.8 | 0.00 | 2.29 | 0.00 | 89 | 1012.0 |
| 20260510045804 | 14 | 229 | 0.0 | 3.2 | 0.00 | 2.29 | 0.00 | 89 | 1012.0 |
| 20260510045306 | 14 | 229 | 0.0 | 3.2 | 0.00 | 2.29 | 0.00 | 89 | 1012.0 |
| 20260510044804 | 14 | 229 | 1.6 | 4.8 | 0.00 | 2.29 | 0.00 | 89 | 1012.1 |
| 20260510043804 | 14 | 230 | 1.6 | 4.8 | 0.00 | 2.29 | 0.00 | 89 | 1012.2 |
| 20260510043304 | 14 | 230 | 1.6 | 4.8 | 0.00 | 2.29 | 0.00 | 89 | 1012.2 |
| 20260510042804 | 14 | 229 | 0.0 | 4.8 | 0.00 | 2.29 | 0.00 | 89 | 1012.2 |
| 20260510041804 | 14 | 229 | 1.6 | 4.8 | 0.00 | 2.29 | 0.00 | 89 | 1012.2 |
| 20260510041304 | 14 | 229 | 1.6 | 3.2 | 0.00 | 2.29 | 0.00 | 89 | 1012.2 |
| 20260510040804 | 14 | 229 | 0.0 | 3.2 | 0.00 | 2.29 | 0.00 | 89 | 1012.1 |
| 20260510035306 | 15 | 230 | 3.2 | 4.8 | 0.00 | 2.29 | 0.00 | 89 | 1012.0 |
| 20260510034804 | 15 | 230 | 3.2 | 8.0 | 0.00 | 2.29 | 0.00 | 89 | 1011.9 |
| 20260510033804 | 15 | 230 | 4.8 | 8.0 | 0.00 | 2.29 | 0.00 | 89 | 1011.8 |
| 20260510032804 | 15 | 231 | 4.8 | 11.3 | 0.00 | 2.29 | 0.00 | 90 | 1011.8 |
| 20260510032306 | 15 | 229 | 1.6 | 11.3 | 0.00 | 2.29 | 0.00 | 90 | 1011.7 |
| 20260510031804 | 15 | 225 | 4.8 | 11.3 | 0.00 | 2.29 | 0.00 | 90 | 1011.8 |
| 20260510031304 | 15 | 216 | 3.2 | 8.0 | 0.00 | 2.29 | 0.00 | 90 | 1011.8 |
| 20260510030304 | 15 | 234 | 3.2 | 8.0 | 0.00 | 2.29 | 0.00 | 91 | 1011.8 |
| 20260510025306 | 14 | 234 | 3.2 | 4.8 | 0.00 | 2.29 | 0.00 | 91 | 1011.7 |
| 20260510024804 | 14 | 234 | 1.6 | 4.8 | 0.00 | 2.29 | 0.00 | 91 | 1011.8 |
| 20260510024304 | 14 | 234 | 1.6 | 4.8 | 0.00 | 2.29 | 0.00 | 91 | 1011.8 |
| 20260510023805 | 14 | 234 | 1.6 | 4.8 | 0.00 | 2.29 | 0.00 | 90 | 1011.8 |
| 20260510023304 | 14 | 234 | 1.6 | 4.8 | 0.00 | 2.29 | 0.00 | 90 | 1011.8 |
| 20260510022804 | 14 | 234 | 0.0 | 0.0 | 0.00 | 2.29 | 0.00 | 90 | 1011.7 |
| 20260510022306 | 14 | 234 | 0.0 | 1.6 | 0.00 | 2.29 | 0.00 | 90 | 1011.8 |
| 20260510021804 | 15 | 234 | 0.0 | 3.2 | 0.00 | 2.29 | 0.00 | 90 | 1011.9 |
| 20260510021304 | 15 | 234 | 0.0 | 0.0 | 0.00 | 2.29 | 0.00 | 90 | 1011.9 |
| 20260510020804 | 15 | 234 | 0.0 | 0.0 | 0.00 | 2.29 | 0.00 | 90 | 1011.9 |
| 20260510020304 | 15 | 234 | 0.0 | 3.2 | 0.00 | 2.29 | 0.00 | 90 | 1011.9 |
| 20260510015306 | 15 | 234 | 0.0 | 4.8 | 0.00 | 2.29 | 0.00 | 90 | 1011.8 |
| 20260510014804 | 15 | 233 | 0.0 | 1.6 | 0.00 | 2.29 | 0.00 | 89 | 1011.8 |
| 20260510013804 | 15 | 244 | 1.6 | 4.8 | 0.00 | 2.29 | 0.00 | 90 | 1011.8 |
| 20260510013303 | 15 | 244 | 1.6 | 4.8 | 0.00 | 2.29 | 0.00 | 90 | 1011.8 |
| 20260510012804 | 15 | 244 | 0.0 | 3.2 | 0.00 | 2.29 | 0.00 | 90 | 1011.8 |
| 20260510012306 | 15 | 244 | 0.0 | 8.0 | 0.00 | 2.29 | 0.00 | 90 | 1011.8 |
| 20260510011803 | 15 | 242 | 1.6 | 4.8 | 0.00 | 2.29 | 0.00 | 90 | 1011.8 |
| 20260510011304 | 15 | 243 | 1.6 | 4.8 | 0.00 | 2.29 | 0.00 | 90 | 1011.9 |
| 20260510010804 | 15 | 243 | 0.0 | 8.0 | 0.00 | 2.29 | 0.00 | 90 | 1011.9 |
| 20260510010304 | 15 | 244 | 3.2 | 4.8 | 0.00 | 2.29 | 0.00 | 90 | 1012.0 |
| 20260510005804 | 15 | 244 | 3.2 | 4.8 | 0.00 | 2.29 | 0.00 | 90 | 1012.2 |
| 20260510005306 | 15 | 244 | 0.0 | 3.2 | 0.00 | 2.29 | 0.00 | 90 | 1012.2 |
| 20260510004805 | 15 | 244 | 1.6 | 3.2 | 0.00 | 2.29 | 0.00 | 90 | 1012.3 |
| 20260510004304 | 15 | 244 | 1.6 | 4.8 | 0.00 | 2.29 | 0.00 | 90 | 1012.3 |
| 20260510003803 | 16 | 244 | 0.0 | 3.2 | 0.00 | 2.29 | 0.00 | 90 | 1012.3 |
| 20260510003304 | 16 | 249 | 1.6 | 4.8 | 0.00 | 2.29 | 0.00 | 90 | 1012.4 |
| 20260510002804 | 16 | 244 | 3.2 | 4.8 | 0.00 | 2.29 | 0.00 | 90 | 1012.4 |
| 20260510002307 | 16 | 244 | 3.2 | 4.8 | 0.00 | 2.29 | 0.00 | 90 | 1012.5 |
| 20260510001804 | 16 | 244 | 1.6 | 4.8 | 0.00 | 2.29 | 0.00 | 90 | 1012.6 |
| 20260509235804 | 16 | 244 | 0.0 | 3.2 | 0.00 | 2.29 | 0.00 | 90 | 1012.6 |
| 20260509235306 | 16 | 244 | 0.0 | 4.8 | 0.00 | 2.29 | 0.00 | 90 | 1012.6 |
| 20260509234804 | 16 | 244 | 1.6 | 3.2 | 0.00 | 2.29 | 0.00 | 90 | 1012.7 |
| 20260509234304 | 16 | 244 | 1.6 | 4.8 | 0.00 | 2.29 | 0.00 | 91 | 1012.7 |
| 20260509233804 | 16 | 244 | 1.6 | 4.8 | 0.00 | 2.29 | 0.00 | 91 | 1012.7 |
| 20260509233304 | 16 | 244 | 0.0 | 0.0 | 0.00 | 2.29 | 0.00 | 90 | 1012.6 |
| 20260509232804 | 16 | 244 | 0.0 | 0.0 | 0.00 | 2.29 | 0.00 | 90 | 1012.7 |
| 20260509232306 | 16 | 244 | 0.0 | 0.0 | 0.00 | 2.29 | 0.00 | 90 | 1012.8 |
| 20260509231804 | 16 | 244 | 0.0 | 1.6 | 0.00 | 2.29 | 0.00 | 90 | 1012.8 |
| 20260509230804 | 16 | 244 | 1.6 | 3.2 | 0.00 | 2.29 | 0.00 | 90 | 1012.8 |
| 20260509230304 | 16 | 244 | 1.6 | 4.8 | 0.00 | 2.29 | 0.00 | 90 | 1012.9 |
| 20260509225804 | 16 | 245 | 0.0 | 0.0 | 0.00 | 2.29 | 0.00 | 90 | 1012.8 |
| 20260509225306 | 16 | 245 | 0.0 | 0.0 | 0.00 | 2.29 | 0.00 | 90 | 1012.7 |
| 20260509224303 | 16 | 245 | 0.0 | 0.0 | 0.00 | 2.29 | 0.00 | 90 | 1012.9 |
| 20260509223804 | 16 | 245 | 0.0 | 0.0 | 0.00 | 2.29 | 0.00 | 90 | 1013.1 |
| 20260509223304 | 16 | 246 | 0.0 | 0.0 | 0.00 | 2.29 | 0.00 | 90 | 1013.2 |
| 20260509222804 | 16 | 246 | 0.0 | 0.0 | 0.00 | 2.29 | 0.00 | 90 | 1013.2 |
| 20260509222307 | 16 | 246 | 0.0 | 1.6 | 0.00 | 2.29 | 0.00 | 89 | 1013.1 |
| 20260509221804 | 16 | 246 | 1.6 | 3.2 | 0.00 | 2.29 | 0.00 | 89 | 1013.1 |
| 20260509221304 | 16 | 246 | 0.0 | 0.0 | 0.00 | 2.29 | 0.00 | 89 | 1013.1 |
| 20260509220304 | 16 | 246 | 1.6 | 3.2 | 0.00 | 2.29 | 0.00 | 89 | 1013.3 |
| 20260509215804 | 16 | 253 | 3.2 | 9.7 | 0.00 | 2.29 | 2.29 | 89 | 1013.4 |
| 20260509215306 | 16 | 246 | 4.8 | 9.7 | 0.00 | 2.29 | 2.29 | 88 | 1013.4 |
| 20260509214804 | 16 | 0 | 1.6 | 4.8 | 0.00 | 2.29 | 2.29 | 88 | 1013.4 |
| 20260509214303 | 16 | 31 | 1.6 | 4.8 | 0.00 | 2.29 | 2.29 | 88 | 1013.2 |
| 20260509213804 | 16 | 10 | 1.6 | 4.8 | 0.00 | 2.29 | 2.29 | 88 | 1013.0 |
| 20260509213304 | 16 | 140 | 0.0 | 1.6 | 0.00 | 2.29 | 2.29 | 88 | 1012.8 |
| 20260509212803 | 16 | 140 | 1.6 | 9.7 | 0.00 | 2.29 | 2.29 | 88 | 1012.6 |
| 20260509212306 | 17 | 18 | 4.8 | 9.7 | 0.00 | 2.29 | 2.29 | 87 | 1012.2 |
| 20260509211303 | 17 | 61 | 4.8 | 11.3 | 0.00 | 2.29 | 2.29 | 87 | 1012.3 |
| 20260509210303 | 17 | 137 | 1.6 | 3.2 | 0.00 | 2.29 | 2.29 | 87 | 1012.8 |
| 20260509205803 | 17 | 5 | 3.2 | 4.8 | 0.00 | 2.29 | 2.29 | 86 | 1012.8 |
| 20260509205307 | 17 | 136 | 4.8 | 8.0 | 0.00 | 2.29 | 2.29 | 86 | 1012.7 |
| 20260509204804 | 17 | 135 | 4.8 | 8.0 | 0.00 | 2.29 | 2.29 | 86 | 1012.7 |
| 20260509204303 | 17 | 135 | 3.2 | 4.8 | 0.00 | 2.29 | 2.29 | 86 | 1012.5 |
| 20260509203304 | 17 | 135 | 0.0 | 0.0 | 0.00 | 2.29 | 2.29 | 86 | 1012.7 |
| 20260509202804 | 17 | 135 | 0.0 | 1.6 | 0.00 | 2.29 | 2.29 | 86 | 1012.7 |
| 20260509202306 | 17 | 135 | 1.6 | 3.2 | 0.00 | 2.29 | 2.29 | 86 | 1012.5 |
| 20260509201303 | 17 | 136 | 1.6 | 3.2 | 0.00 | 2.29 | 2.29 | 86 | 1012.4 |
| 20260509200804 | 17 | 136 | 1.6 | 4.8 | 0.00 | 2.29 | 2.29 | 86 | 1012.4 |
| 20260509200304 | 17 | 135 | 1.6 | 3.2 | 0.00 | 2.29 | 2.29 | 86 | 1012.3 |
| 20260509195306 | 17 | 135 | 0.0 | 0.0 | 0.00 | 2.29 | 2.29 | 86 | 1012.2 |
| 20260509194804 | 17 | 135 | 0.0 | 0.0 | 0.00 | 2.29 | 2.29 | 86 | 1011.9 |
| 20260509193804 | 17 | 135 | 0.0 | 1.6 | 0.00 | 2.29 | 2.29 | 85 | 1012.0 |
| 20260509192804 | 17 | 135 | 3.2 | 4.8 | 0.00 | 2.29 | 2.29 | 85 | 1011.7 |
| 20260509192306 | 17 | 135 | 1.6 | 3.2 | 0.00 | 2.29 | 2.29 | 85 | 1011.7 |
| 20260509191804 | 17 | 135 | 1.6 | 8.0 | 0.00 | 2.29 | 2.29 | 85 | 1011.6 |
| 20260509190803 | 17 | 135 | 3.2 | 4.8 | 0.00 | 2.29 | 2.29 | 84 | 1011.3 |
| 20260509190304 | 17 | 135 | 1.6 | 4.8 | 0.00 | 2.29 | 2.29 | 84 | 1011.2 |
| 20260509185804 | 17 | 135 | 1.6 | 4.8 | 0.00 | 2.29 | 2.29 | 84 | 1011.1 |
| 20260509185306 | 17 | 135 | 3.2 | 4.8 | 0.00 | 2.29 | 2.29 | 84 | 1011.2 |
| 20260509184303 | 18 | 5 | 3.2 | 8.0 | 0.00 | 2.29 | 2.29 | 83 | 1011.1 |
| 20260509183804 | 18 | 32 | 3.2 | 11.3 | 0.00 | 2.29 | 2.29 | 83 | 1011.0 |
| 20260509183304 | 18 | 136 | 8.0 | 9.7 | 0.00 | 2.29 | 2.29 | 83 | 1011.0 |
| 20260509182803 | 18 | 129 | 3.2 | 9.7 | 0.00 | 2.29 | 2.29 | 82 | 1011.0 |
| 20260509182306 | 18 | 11 | 4.8 | 11.3 | 0.00 | 2.29 | 2.29 | 82 | 1010.9 |
| 20260509181303 | 18 | 72 | 8.0 | 12.9 | 0.00 | 2.29 | 2.29 | 82 | 1010.3 |
| 20260509180804 | 18 | 17 | 3.2 | 11.3 | 0.00 | 2.29 | 2.29 | 81 | 1010.4 |
| 20260509180304 | 18 | 10 | 6.4 | 11.3 | 0.00 | 2.29 | 2.29 | 81 | 1010.4 |
| 20260509175804 | 18 | 62 | 3.2 | 8.0 | 0.00 | 2.29 | 2.29 | 81 | 1010.4 |
| 20260509175306 | 18 | 0 | 3.2 | 9.7 | 0.00 | 2.29 | 2.29 | 81 | 1010.4 |
| 20260509174804 | 18 | 62 | 8.0 | 9.7 | 0.00 | 2.29 | 2.29 | 80 | 1010.3 |
| 20260509174305 | 18 | 119 | 8.0 | 9.7 | 0.00 | 2.29 | 2.29 | 80 | 1010.5 |
| 20260509173805 | 18 | 119 | 4.8 | 8.0 | 0.00 | 2.29 | 2.29 | 80 | 1010.6 |
| 20260509173304 | 18 | 0 | 3.2 | 9.7 | 0.00 | 2.29 | 2.29 | 80 | 1010.6 |
| 20260509172806 | 18 | 21 | 6.4 | 9.7 | 0.00 | 2.29 | 2.29 | 80 | 1010.6 |
| 20260509172306 | 18 | 29 | 3.2 | 8.0 | 0.00 | 2.29 | 2.29 | 79 | 1010.6 |
| 20260509171305 | 19 | 109 | 3.2 | 9.7 | 0.00 | 2.29 | 2.29 | 78 | 1010.4 |
| 20260509170805 | 19 | 117 | 4.8 | 11.3 | 0.00 | 2.29 | 2.29 | 77 | 1010.5 |
| 20260509165306 | 20 | 76 | 4.8 | 12.9 | 0.00 | 2.29 | 2.29 | 76 | 1010.3 |
| 20260509164805 | 20 | 48 | 4.8 | 19.3 | 0.00 | 2.29 | 2.29 | 75 | 1010.2 |
| 20260509164305 | 20 | 80 | 3.2 | 12.9 | 0.00 | 2.29 | 2.29 | 76 | 1010.2 |
| 20260509163805 | 20 | 37 | 6.4 | 11.3 | 0.00 | 2.29 | 2.29 | 75 | 1010.1 |
| 20260509163305 | 20 | 23 | 4.8 | 12.9 | 0.00 | 2.29 | 2.29 | 77 | 1010.1 |
| 20260509162805 | 19 | 16 | 6.4 | 14.5 | 0.00 | 2.29 | 2.29 | 78 | 1010.0 |
| 20260509162307 | 19 | 24 | 4.8 | 16.1 | 0.03 | 2.29 | 2.29 | 77 | 1010.1 |
| 20260509161805 | 20 | 12 | 6.4 | 11.3 | 0.03 | 2.29 | 2.29 | 77 | 1010.2 |
| 20260509160804 | 20 | 4 | 4.8 | 12.9 | 0.03 | 2.29 | 2.29 | 76 | 1010.1 |
| 20260509160305 | 20 | 64 | 4.8 | 11.3 | 0.03 | 2.29 | 2.29 | 77 | 1010.1 |
| 20260509155805 | 20 | 22 | 8.0 | 16.1 | 0.03 | 2.29 | 2.29 | 78 | 1010.2 |
| 20260509155306 | 20 | 18 | 8.0 | 14.5 | 0.03 | 2.29 | 2.29 | 79 | 1010.3 |
| 20260509154805 | 19 | 26 | 3.2 | 12.9 | 0.03 | 2.29 | 2.29 | 81 | 1010.4 |
| 20260509154304 | 19 | 16 | 4.8 | 9.7 | 0.03 | 2.29 | 2.29 | 81 | 1010.3 |
| 20260509153804 | 18 | 11 | 8.0 | 16.1 | 0.03 | 2.29 | 2.29 | 80 | 1010.3 |
| 20260509153304 | 19 | 54 | 4.8 | 11.3 | 0.03 | 2.29 | 2.29 | 80 | 1010.3 |
| 20260509152805 | 19 | 0 | 8.0 | 12.9 | 0.03 | 2.29 | 2.29 | 81 | 1010.3 |
| 20260509151804 | 19 | 45 | 1.6 | 4.8 | 0.00 | 2.26 | 2.26 | 80 | 1010.0 |
| 20260509151305 | 19 | 24 | 6.4 | 8.0 | 0.00 | 2.26 | 2.26 | 80 | 1010.1 |
| 20260509150805 | 19 | 1 | 4.8 | 12.9 | 0.00 | 2.26 | 2.26 | 80 | 1010.1 |
| 20260509150305 | 19 | 309 | 3.2 | 4.8 | 0.00 | 2.26 | 2.26 | 81 | 1010.2 |
| 20260509145805 | 20 | 339 | 3.2 | 8.0 | 0.00 | 2.26 | 2.26 | 81 | 1010.2 |
| 20260509145306 | 20 | 314 | 0.0 | 3.2 | 0.00 | 2.26 | 2.26 | 82 | 1010.1 |
| 20260509144805 | 19 | 289 | 4.8 | 8.0 | 0.00 | 2.26 | 2.26 | 83 | 1010.1 |
| 20260509144305 | 19 | 21 | 4.8 | 4.8 | 0.00 | 2.26 | 2.26 | 84 | 1010.2 |
| 20260509143804 | 18 | 298 | 0.0 | 4.8 | 0.00 | 2.26 | 2.26 | 85 | 1010.2 |
| 20260509143304 | 18 | 332 | 3.2 | 8.0 | 0.00 | 2.26 | 2.26 | 86 | 1010.2 |
| 20260509142805 | 18 | 310 | 0.0 | 4.8 | 0.00 | 2.26 | 2.26 | 87 | 1010.2 |
| 20260509142307 | 18 | 277 | 3.2 | 8.0 | 0.00 | 2.26 | 2.26 | 88 | 1010.2 |
| 20260509141804 | 18 | 223 | 3.2 | 8.0 | 0.00 | 2.26 | 2.26 | 91 | 1010.3 |
| 20260509141305 | 17 | 222 | 4.8 | 8.0 | 0.00 | 2.26 | 2.26 | 91 | 1010.3 |